QPF
0.07 0.07 0.06 0.05 0.05 0.04 0.03 0.02 0.02 0.02 0.02 0.03 0.02 0.01 0.00 0.00 0.01 0.01 0.01 0.01 0.00 0.00 0.00 0.01 0.02 0.01 0.01 0.01 0.01 0.01 0.01 0.01 0.01 0.00 0.00 0.00 0.00 0.00 0.00 0.00 0.00 0.00 0.00 0.00
0.07 0.06 0.04 0.04 0.04 0.05 0.05 0.04 0.02 0.01 0.01 0.02 0.02 0.01 0.00 0.00 0.00 0.00 0.00 0.01 0.00 0.00 0.00 0.01 0.01 0.01 0.01 0.01 0.01 0.01 0.01 0.01 0.01 0.00 0.00 0.00 0.00 0.00 0.00 0.00 0.00 0.00 0.00 0.00
0.04 0.03 0.03 0.04 0.05 0.05 0.05 0.04 0.02 0.02 0.01 0.02 0.02 0.01 0.00 0.00 0.00 0.00 0.00 0.00 0.00 0.00 0.00 0.00 0.01 0.01 0.01 0.01 0.00 0.01 0.01 0.02 0.02 0.01 0.01 0.00 0.00 0.00 0.00 0.00 0.00 0.00 0.00 0.00
0.03 0.02 0.02 0.03 0.04 0.05 0.05 0.03 0.02 0.03 0.04 0.04 0.03 0.02 0.00 0.00 0.00 0.00 0.00 0.00 0.00 0.00 0.00 0.00 0.01 0.01 0.01 0.01 0.01 0.00 0.01 0.01 0.02 0.02 0.02 0.01 0.00 0.00 0.00 0.00 0.00 0.00 0.00 0.00
0.04 0.01 0.02 0.02 0.02 0.03 0.03 0.02 0.03 0.04 0.05 0.06 0.04 0.03 0.01 0.00 0.00 0.00 0.00 0.00 0.00 0.00 0.00 0.00 0.00 0.01 0.01 0.01 0.02 0.01 0.01 0.01 0.02 0.03 0.03 0.02 0.01 0.01 0.00 0.00 0.00 0.00 0.00 0.00
0.04 0.03 0.02 0.01 0.01 0.02 0.03 0.04 0.05 0.06 0.09 0.11 0.05 0.03 0.01 0.00 0.00 0.00 0.00 0.00 0.00 0.00 0.00 0.00 0.00 0.00 0.01 0.01 0.02 0.02 0.02 0.01 0.01 0.02 0.05 0.05 0.04 0.02 0.01 0.00 0.00 0.00 0.00 0.00
0.04 0.03 0.02 0.01 0.02 0.03 0.04 0.07 0.12 0.12 0.14 0.09 0.01 0.01 0.01 0.00 0.00 0.00 0.00 0.00 0.00 0.00 0.00 0.00 0.00 0.00 0.00 0.01 0.01 0.02 0.02 0.02 0.01 0.01 0.01 0.04 0.06 0.06 0.05 0.03 0.01 0.00 0.00 0.00
0.03 0.03 0.02 0.01 0.01 0.02 0.04 0.07 0.08 0.07 0.04 0.01 0.00 0.00 0.00 0.00 0.00 0.00 0.00 0.00 0.00 0.00 0.00 0.00 0.00 0.00 0.00 0.00 0.01 0.01 0.02 0.02 0.01 0.01 0.01 0.01 0.02 0.04 0.05 0.05 0.05 0.03 0.01 0.00
0.03 0.02 0.01 0.01 0.01 0.02 0.04 0.06 0.06 0.06 0.04 0.02 0.01 0.00 0.00 0.00 0.00 0.00 0.00 0.00 0.00 0.00 0.00 0.00 0.00 0.00 0.00 0.00 0.01 0.01 0.02 0.02 0.02 0.02 0.01 0.01 0.01 0.01 0.02 0.03 0.04 0.04 0.03 0.02
0.07 0.04 0.01 0.01 0.02 0.03 0.03 0.04 0.08 0.10 0.08 0.04 0.01 0.00 0.00 0.00 0.00 0.00 0.00 0.00 0.00 0.00 0.00 0.00 0.00 0.00 0.00 0.01 0.01 0.01 0.01 0.02 0.03 0.02 0.02 0.01 0.01 0.01 0.01 0.01 0.02 0.03 0.04 0.04
0.08 0.08 0.04 0.02 0.03 0.03 0.04 0.04 0.07 0.09 0.08 0.04 0.02 0.00 0.00 0.00 0.00 0.00 0.00 0.00 0.00 0.00 0.00 0.00 0.00 0.00 0.00 0.00 0.01 0.01 0.01 0.01 0.02 0.03 0.03 0.02 0.01 0.01 0.01 0.01 0.01 0.01 0.01 0.02
0.07 0.10 0.08 0.05 0.02 0.02 0.03 0.04 0.05 0.08 0.06 0.04 0.03 0.01 0.00 0.00 0.00 0.00 0.00 0.00 0.00 0.00 0.00 0.00 0.00 0.00 0.00 0.00 0.00 0.00 0.01 0.01 0.01 0.01 0.02 0.03 0.03 0.02 0.01 0.01 0.01 0.01 0.01 0.01
0.07 0.10 0.11 0.10 0.08 0.05 0.04 0.03 0.05 0.07 0.07 0.05 0.04 0.01 0.00 0.00 0.00 0.00 0.00 0.00 0.00 0.00 0.00 0.00 0.00 0.00 0.00 0.00 0.00 0.00 0.00 0.00 0.00 0.00 0.01 0.01 0.02 0.02 0.02 0.02 0.01 0.01 0.01 0.01
0.07 0.07 0.07 0.08 0.08 0.07 0.07 0.05 0.05 0.08 0.11 0.07 0.02 0.01 0.00 0.00 0.00 0.00 0.00 0.00 0.00 0.00 0.00 0.00 0.00 0.00 0.00 0.00 0.00 0.00 0.00 0.00 0.00 0.00 0.00 0.00 0.00 0.01 0.01 0.01 0.01 0.02 0.02 0.02
0.05 0.05 0.03 0.03 0.03 0.03 0.03 0.03 0.04 0.06 0.07 0.06 0.02 0.01 0.00 0.00 0.00 0.00 0.00 0.00 0.00 0.00 0.00 0.00 0.00 0.00 0.00 0.00 0.00 0.00 0.00 0.00 0.00 0.00 0.00 0.00 0.00 0.00 0.00 0.00 0.00 0.01 0.01 0.01
0.04 0.04 0.02 0.01 0.01 0.02 0.02 0.02 0.02 0.02 0.03 0.03 0.02 0.01 0.00 0.00 0.00 0.00 0.00 0.00 0.00 0.00 0.00 0.00 0.00 0.00 0.00 0.00 0.00 0.00 0.00 0.00 0.00 0.00 0.00 0.00 0.00 0.00 0.00 0.00 0.00 0.00 0.00 0.00
0.03 0.04 0.03 0.02 0.01 0.02 0.02 0.01 0.01 0.01 0.01 0.01 0.01 0.01 0.01 0.00 0.00 0.00 0.00 0.00 0.00 0.00 0.00 0.00 0.00 0.00 0.00 0.00 0.00 0.00 0.00 0.00 0.00 0.00 0.00 0.00 0.00 0.00 0.00 0.00 0.00 0.00 0.00 0.00
0.01 0.02 0.03 0.03 0.02 0.03 0.01 0.00 0.00 0.00 0.01 0.00 0.00 0.00 0.00 0.00 0.00 0.00 0.00 0.00 0.00 0.00 0.00 0.00 0.01 0.01 0.01 0.01 0.01 0.01 0.01 0.01 0.01 0.00 0.00 0.00 0.00 0.00 0.00 0.00 0.00 0.00 0.00 0.00
0.01 0.02 0.04 0.03 0.02 0.01 0.01 0.00 0.00 0.00 0.01 0.00 0.00 0.00 0.00 0.00 0.00 0.00 0.00 0.00 0.00 0.00 0.00 0.00 0.01 0.01 0.01 0.01 0.01 0.01 0.01 0.01 0.01 0.01 0.00 0.00 0.00 0.00 0.00 0.00 0.00 0.00 0.00 0.00
0.01 0.02 0.04 0.04 0.03 0.01 0.00 0.00 0.00 0.00 0.00 0.00 0.00 0.00 0.01 0.01 0.01 0.01 0.00 0.00 0.01 0.01 0.01 0.01 0.01 0.01 0.01 0.01 0.01 0.01 0.01 0.01 0.01 0.00 0.00 0.00 0.00 0.00 0.00 0.00 0.00 0.00 0.00 0.00
0.04 0.04 0.04 0.03 0.03 0.01 0.00 0.00 0.00 0.01 0.01 0.00 0.00 0.00 0.00 0.00 0.00 0.00 0.00 0.00 0.00 0.00 0.01 0.01 0.01 0.01 0.01 0.01 0.01 0.01 0.01 0.00 0.00 0.00 0.00 0.00 0.00 0.00 0.00 0.00 0.00 0.00 0.00 0.00
0.01 0.02 0.02 0.02 0.03 0.01 0.00 0.01 0.02 0.02 0.01 0.01 0.01 0.01 0.00 0.00 0.00 0.00 0.00 0.00 0.00 0.00 0.00 0.00 0.00 0.01 0.01 0.01 0.00 0.00 0.00 0.00 0.00 0.00 0.00 0.00 0.00 0.00 0.00 0.00 0.00 0.00 0.01 0.01
0.00 0.00 0.00 0.01 0.01 0.01 0.00 0.01 0.01 0.02 0.01 0.01 0.00 0.00 0.00 0.01 0.00 0.00 0.00 0.00 0.00 0.00 0.00 0.00 0.00 0.00 0.00 0.00 0.01 0.01 0.01 0.01 0.01 0.01 0.01 0.01 0.01 0.01 0.01 0.01 0.01 0.01 0.01 0.01
0.00 0.00 0.00 0.00 0.00 0.00 0.00 0.00 0.01 0.01 0.01 0.00 0.00 0.00 0.00 0.00 0.00 0.00 0.00 0.00 0.00 0.00 0.00 0.00 0.00 0.00 0.00 0.00 0.00 0.01 0.01 0.01 0.01 0.01 0.01 0.01 0.01 0.01 0.00 0.01 0.01 0.01 0.01 0.02
0.00 0.00 0.00 0.00 0.00 0.00 0.00 0.00 0.00 0.00 0.00 0.00 0.00 0.00 0.00 0.00 0.00 0.00 0.00 0.00 0.00 0.00 0.00 0.00 0.00 0.00 0.00 0.00 0.00 0.01 0.01 0.01 0.01 0.01 0.01 0.01 0.01 0.01 0.01 0.01 0.01 0.02 0.02 0.02
0.00 0.00 0.00 0.00 0.00 0.00 0.00 0.00 0.00 0.00 0.00 0.00 0.00 0.00 0.00 0.00 0.00 0.00 0.00 0.00 0.00 0.00 0.00 0.00 0.00 0.00 0.00 0.01 0.01 0.01 0.01 0.01 0.01 0.01 0.01 0.01 0.01 0.02 0.02 0.02 0.03 0.04 0.03 0.03
MSLP
1017.88 1017.56 1017.14 1016.64 1016.12 1015.64 1015.25 1014.99 1014.86 1014.82 1014.84 1014.87 1014.85 1014.77 1014.61 1014.39 1014.13 1013.86 1013.61 1013.40 1013.22 1013.05 1012.90 1012.73 1012.55 1012.37 1012.23 1012.16 1012.19 1012.36 1012.69 1013.15 1013.71 1014.33 1014.95 1015.52 1016.00 1016.36 1016.62 1016.79 1016.91 1017.02 1017.14 1017.31
1017.98 1017.66 1017.22 1016.71 1016.20 1015.73 1015.38 1015.16 1015.06 1015.05 1015.08 1015.07 1015.00 1014.83 1014.56 1014.23 1013.87 1013.53 1013.24 1013.01 1012.83 1012.69 1012.55 1012.39 1012.19 1011.96 1011.74 1011.57 1011.50 1011.57 1011.81 1012.21 1012.76 1013.39 1014.04 1014.66 1015.20 1015.61 1015.91 1016.10 1016.23 1016.33 1016.45 1016.61
1018.03 1017.68 1017.23 1016.72 1016.23 1015.82 1015.53 1015.38 1015.35 1015.38 1015.40 1015.37 1015.22 1014.95 1014.56 1014.10 1013.62 1013.19 1012.83 1012.58 1012.41 1012.29 1012.19 1012.05 1011.86 1011.61 1011.34 1011.10 1010.93 1010.90 1011.05 1011.39 1011.88 1012.49 1013.14 1013.78 1014.34 1014.78 1015.10 1015.32 1015.46 1015.58 1015.70 1015.87
1018.03 1017.64 1017.17 1016.67 1016.22 1015.87 1015.67 1015.61 1015.66 1015.75 1015.79 1015.73 1015.51 1015.13 1014.62 1014.02 1013.42 1012.89 1012.46 1012.18 1012.01 1011.92 1011.86 1011.77 1011.61 1011.37 1011.08 1010.79 1010.55 1010.44 1010.50 1010.75 1011.17 1011.72 1012.33 1012.94 1013.49 1013.93 1014.26 1014.48 1014.64 1014.76 1014.89 1015.07
1018.04 1017.58 1017.07 1016.58 1016.18 1015.91 1015.82 1015.86 1016.00 1016.15 1016.22 1016.14 1015.86 1015.39 1014.76 1014.04 1013.32 1012.69 1012.20 1011.88 1011.71 1011.65 1011.62 1011.58 1011.46 1011.25 1010.97 1010.66 1010.39 1010.22 1010.20 1010.36 1010.68 1011.14 1011.68 1012.22 1012.72 1013.13 1013.43 1013.64 1013.78 1013.90 1014.03 1014.21
1018.10 1017.56 1017.02 1016.53 1016.18 1016.00 1016.00 1016.15 1016.38 1016.59 1016.69 1016.59 1016.27 1015.72 1015.00 1014.17 1013.36 1012.65 1012.10 1011.74 1011.57 1011.52 1011.53 1011.52 1011.45 1011.28 1011.03 1010.72 1010.43 1010.21 1010.13 1010.20 1010.43 1010.78 1011.22 1011.66 1012.08 1012.41 1012.66 1012.83 1012.94 1013.03 1013.15 1013.31
1018.26 1017.64 1017.07 1016.60 1016.29 1016.19 1016.28 1016.52 1016.82 1017.08 1017.19 1017.09 1016.73 1016.13 1015.34 1014.45 1013.57 1012.80 1012.21 1011.82 1011.62 1011.57 1011.60 1011.62 1011.57 1011.43 1011.20 1010.91 1010.61 1010.36 1010.22 1010.22 1010.35 1010.59 1010.91 1011.24 1011.55 1011.79 1011.96 1012.07 1012.13 1012.18 1012.26 1012.38
1018.56 1017.90 1017.31 1016.86 1016.61 1016.57 1016.73 1017.02 1017.36 1017.63 1017.74 1017.62 1017.23 1016.59 1015.76 1014.84 1013.93 1013.13 1012.50 1012.09 1011.87 1011.80 1011.82 1011.83 1011.79 1011.66 1011.43 1011.15 1010.84 1010.57 1010.38 1010.30 1010.34 1010.48 1010.68 1010.90 1011.09 1011.23 1011.31 1011.34 1011.35 1011.35 1011.38 1011.46
1019.03 1018.36 1017.80 1017.39 1017.19 1017.19 1017.38 1017.68 1018.01 1018.25 1018.32 1018.16 1017.73 1017.06 1016.22 1015.29 1014.38 1013.58 1012.95 1012.51 1012.27 1012.16 1012.13 1012.11 1012.04 1011.88 1011.64 1011.34 1011.02 1010.72 1010.48 1010.34 1010.30 1010.34 1010.43 1010.53 1010.62 1010.67 1010.67 1010.63 1010.58 1010.53 1010.52 1010.55
1019.66 1019.04 1018.54 1018.19 1018.04 1018.06 1018.24 1018.50 1018.76 1018.92 1018.90 1018.66 1018.17 1017.48 1016.63 1015.72 1014.84 1014.06 1013.44 1012.99 1012.72 1012.56 1012.47 1012.38 1012.25 1012.04 1011.75 1011.41 1011.06 1010.72 1010.44 1010.24 1010.12 1010.07 1010.06 1010.07 1010.07 1010.04 1009.97 1009.89 1009.80 1009.72 1009.67 1009.65
1020.41 1019.90 1019.49 1019.23 1019.11 1019.14 1019.26 1019.43 1019.55 1019.57 1019.41 1019.05 1018.49 1017.75 1016.91 1016.03 1015.18 1014.45 1013.86 1013.42 1013.12 1012.91 1012.75 1012.57 1012.35 1012.07 1011.72 1011.32 1010.91 1010.53 1010.19 1009.93 1009.74 1009.61 1009.52 1009.45 1009.37 1009.29 1009.18 1009.07 1008.97 1008.88 1008.81 1008.78
1021.21 1020.84 1020.56 1020.38 1020.30 1020.30 1020.33 1020.35 1020.29 1020.11 1019.77 1019.26 1018.59 1017.81 1016.96 1016.11 1015.33 1014.66 1014.11 1013.69 1013.37 1013.12 1012.89 1012.63 1012.32 1011.95 1011.53 1011.06 1010.60 1010.16 1009.77 1009.44 1009.17 1008.97 1008.80 1008.66 1008.53 1008.40 1008.28 1008.17 1008.07 1008.00 1007.94 1007.90
1021.97 1021.76 1021.62 1021.52 1021.46 1021.40 1021.30 1021.14 1020.86 1020.45 1019.90 1019.22 1018.43 1017.59 1016.73 1015.93 1015.21 1014.60 1014.12 1013.73 1013.42 1013.14 1012.86 1012.54 1012.15 1011.71 1011.22 1010.70 1010.17 1009.67 1009.22 1008.82 1008.49 1008.20 1007.96 1007.75 1007.57 1007.42 1007.29 1007.19 1007.12 1007.08 1007.05 1007.03
1022.62 1022.57 1022.53 1022.49 1022.42 1022.28 1022.04 1021.67 1021.16 1020.52 1019.75 1018.89 1017.99 1017.08 1016.23 1015.46 1014.81 1014.29 1013.87 1013.53 1013.25 1012.97 1012.66 1012.30 1011.87 1011.38 1010.85 1010.28 1009.71 1009.16 1008.65 1008.18 1007.77 1007.40 1007.07 1006.79 1006.56 1006.38 1006.25 1006.17 1006.13 1006.13 1006.14 1006.15
1023.10 1023.17 1023.21 1023.19 1023.07 1022.82 1022.42 1021.85 1021.12 1020.26 1019.29 1018.29 1017.28 1016.34 1015.49 1014.77 1014.19 1013.74 1013.40 1013.12 1012.88 1012.62 1012.32 1011.95 1011.52 1011.02 1010.47 1009.89 1009.30 1008.71 1008.15 1007.61 1007.11 1006.65 1006.24 1005.88 1005.58 1005.35 1005.21 1005.13 1005.13 1005.16 1005.22 1005.27
1023.42 1023.53 1023.58 1023.53 1023.33 1022.95 1022.39 1021.63 1020.71 1019.68 1018.57 1017.45 1016.39 1015.42 1014.60 1013.94 1013.43 1013.06 1012.79 1012.57 1012.38 1012.16 1011.89 1011.55 1011.14 1010.66 1010.13 1009.56 1008.97 1008.37 1007.77 1007.17 1006.59 1006.03 1005.52 1005.06 1004.68 1004.40 1004.22 1004.14 1004.14 1004.21 1004.30 1004.39
1023.61 1023.68 1023.66 1023.51 1023.19 1022.67 1021.95 1021.05 1019.99 1018.83 1017.64 1016.48 1015.40 1014.46 1013.68 1013.08 1012.65 1012.34 1012.13 1011.97 1011.82 1011.64 1011.41 1011.12 1010.76 1010.34 1009.85 1009.33 1008.76 1008.15 1007.52 1006.87 1006.22 1005.57 1004.95 1004.39 1003.92 1003.56 1003.32 1003.21 1003.21 1003.29 1003.42 1003.54
1023.69 1023.64 1023.48 1023.17 1022.69 1022.02 1021.17 1020.16 1019.02 1017.82 1016.61 1015.47 1014.44 1013.55 1012.84 1012.31 1011.93 1011.68 1011.51 1011.39 1011.27 1011.13 1010.94 1010.70 1010.40 1010.04 1009.62 1009.15 1008.62 1008.04 1007.40 1006.71 1005.98 1005.25 1004.53 1003.87 1003.30 1002.85 1002.55 1002.39 1002.37 1002.45 1002.59 1002.74
1023.73 1023.47 1023.10 1022.60 1021.94 1021.12 1020.16 1019.08 1017.92 1016.74 1015.59 1014.52 1013.58 1012.78 1012.16 1011.69 1011.37 1011.15 1011.00 1010.89 1010.78 1010.66 1010.51 1010.31 1010.07 1009.77 1009.42 1009.01 1008.53 1007.97 1007.34 1006.62 1005.85 1005.04 1004.24 1003.49 1002.82 1002.29 1001.92 1001.70 1001.64 1001.71 1001.85 1002.03
1023.71 1023.21 1022.59 1021.86 1021.02 1020.07 1019.03 1017.93 1016.80 1015.69 1014.64 1013.69 1012.86 1012.18 1011.64 1011.24 1010.95 1010.74 1010.59 1010.47 1010.36 1010.24 1010.10 1009.94 1009.74 1009.50 1009.22 1008.87 1008.44 1007.92 1007.29 1006.57 1005.76 1004.91 1004.05 1003.22 1002.48 1001.87 1001.43 1001.16 1001.06 1001.10 1001.25 1001.45
1023.61 1022.83 1021.96 1021.01 1020.00 1018.94 1017.86 1016.77 1015.72 1014.72 1013.80 1012.99 1012.29 1011.72 1011.27 1010.91 1010.64 1010.43 1010.26 1010.12 1009.98 1009.85 1009.72 1009.57 1009.42 1009.23 1009.00 1008.70 1008.32 1007.84 1007.23 1006.52 1005.71 1004.83 1003.93 1003.06 1002.27 1001.61 1001.12 1000.80 1000.66 1000.68 1000.82 1001.03
1023.31 1022.28 1021.19 1020.05 1018.91 1017.78 1016.70 1015.66 1014.71 1013.84 1013.07 1012.40 1011.83 1011.36 1010.97 1010.65 1010.38 1010.16 1009.96 1009.78 1009.62 1009.47 1009.34 1009.22 1009.09 1008.95 1008.77 1008.52 1008.19 1007.74 1007.17 1006.48 1005.68 1004.81 1003.91 1003.03 1002.22 1001.53 1001.00 1000.65 1000.48 1000.47 1000.60 1000.82
1022.71 1021.48 1020.22 1018.96 1017.74 1016.60 1015.55 1014.61 1013.77 1013.04 1012.41 1011.87 1011.41 1011.01 1010.67 1010.36 1010.09 1009.84 1009.61 1009.41 1009.23 1009.09 1008.97 1008.87 1008.78 1008.68 1008.54 1008.34 1008.05 1007.65 1007.12 1006.46 1005.70 1004.86 1003.99 1003.13 1002.33 1001.64 1001.10 1000.73 1000.54 1000.51 1000.61 1000.83
1021.71 1020.35 1018.99 1017.69 1016.48 1015.39 1014.42 1013.60 1012.89 1012.30 1011.79 1011.36 1010.97 1010.62 1010.30 1009.99 1009.70 1009.43 1009.18 1008.97 1008.80 1008.67 1008.58 1008.53 1008.48 1008.43 1008.35 1008.19 1007.95 1007.59 1007.11 1006.50 1005.79 1005.01 1004.19 1003.38 1002.62 1001.96 1001.44 1001.07 1000.86 1000.81 1000.89 1001.09
1020.25 1018.86 1017.50 1016.24 1015.11 1014.13 1013.30 1012.61 1012.05 1011.59 1011.18 1010.82 1010.48 1010.15 1009.82 1009.50 1009.19 1008.91 1008.66 1008.46 1008.32 1008.23 1008.20 1008.20 1008.22 1008.23 1008.20 1008.09 1007.90 1007.58 1007.15 1006.60 1005.96 1005.24 1004.50 1003.76 1003.07 1002.47 1001.98 1001.63 1001.42 1001.36 1001.42 1001.60
1018.38 1017.03 1015.77 1014.64 1013.66 1012.85 1012.20 1011.68 1011.26 1010.91 1010.59 1010.28 1009.95 1009.62 1009.27 1008.92 1008.59 1008.29 1008.06 1007.90 1007.80 1007.79 1007.83 1007.91 1008.00 1008.07 1008.10 1008.04 1007.89 1007.62 1007.24 1006.75 1006.18 1005.55 1004.90 1004.26 1003.66 1003.14 1002.71 1002.40 1002.20 1002.13 1002.17 1002.32
Thickness
5512 5513 5522 5535 5543 5552 5555 5558 5565 5578 5589 5590 5595 5606 5619 5630 5633 5638 5644 5650 5657 5665 5674 5678 5681 5684 5685 5685 5686 5687 5686 5686 5684 5682 5680 5679 5679 5679 5679 5678 5677 5676 5674 5672
5495 5504 5520 5528 5533 5538 5541 5544 5552 5565 5576 5579 5583 5592 5608 5618 5626 5633 5639 5645 5651 5657 5663 5669 5673 5676 5678 5679 5681 5682 5683 5682 5681 5680 5679 5678 5676 5675 5675 5674 5673 5672 5671 5669
5487 5503 5513 5516 5519 5524 5530 5536 5543 5550 5560 5567 5569 5577 5593 5610 5619 5628 5635 5642 5646 5651 5656 5661 5665 5668 5670 5672 5675 5678 5678 5678 5677 5676 5673 5671 5669 5668 5668 5668 5668 5668 5666 5664
5479 5493 5499 5503 5509 5515 5522 5534 5537 5540 5541 5544 5553 5554 5580 5597 5608 5619 5628 5633 5639 5645 5650 5654 5657 5659 5662 5665 5668 5670 5671 5671 5671 5669 5666 5665 5664 5664 5666 5665 5663 5662 5661 5659
5472 5483 5488 5495 5505 5509 5515 5525 5527 5529 5529 5530 5538 5539 5562 5583 5596 5611 5620 5627 5633 5638 5641 5644 5648 5651 5654 5656 5658 5660 5662 5662 5663 5662 5661 5659 5658 5659 5658 5657 5655 5655 5654 5653
5467 5477 5482 5491 5500 5503 5507 5509 5512 5514 5514 5514 5531 5529 5549 5571 5592 5605 5613 5619 5624 5627 5630 5634 5637 5640 5642 5645 5647 5649 5650 5651 5652 5652 5652 5651 5650 5650 5648 5648 5647 5647 5646 5645
5454 5465 5475 5484 5486 5492 5495 5491 5488 5489 5493 5503 5527 5527 5549 5572 5588 5598 5604 5608 5612 5615 5617 5620 5623 5626 5629 5632 5634 5636 5637 5638 5640 5641 5641 5642 5642 5641 5640 5640 5639 5638 5637 5637
5440 5449 5466 5475 5482 5485 5488 5487 5482 5481 5485 5496 5512 5522 5549 5567 5579 5587 5593 5596 5598 5600 5603 5606 5610 5613 5616 5619 5621 5623 5625 5626 5627 5629 5630 5631 5631 5630 5630 5630 5629 5628 5628 5628
5438 5448 5466 5472 5479 5481 5479 5480 5486 5480 5477 5480 5493 5514 5538 5556 5563 5570 5574 5578 5580 5583 5587 5591 5595 5598 5601 5604 5607 5610 5611 5612 5613 5615 5617 5617 5618 5618 5618 5618 5617 5616 5616 5616
5436 5439 5454 5464 5470 5473 5477 5479 5472 5467 5465 5467 5486 5503 5522 5539 5546 5552 5557 5561 5565 5569 5572 5575 5578 5582 5585 5588 5591 5594 5596 5597 5598 5600 5601 5603 5603 5604 5604 5604 5604 5604 5604 5604
5430 5428 5438 5448 5456 5462 5464 5466 5467 5464 5461 5464 5469 5496 5523 5530 5535 5538 5541 5546 5549 5552 5555 5558 5562 5564 5568 5571 5574 5577 5579 5580 5581 5583 5585 5586 5588 5589 5589 5590 5591 5591 5591 5591
5424 5421 5421 5436 5450 5459 5462 5463 5462 5453 5451 5459 5468 5489 5519 5520 5523 5525 5527 5530 5533 5536 5539 5541 5543 5546 5549 5553 5555 5558 5561 5563 5565 5566 5568 5570 5571 5572 5573 5574 5575 5575 5576 5576
5418 5411 5406 5417 5430 5439 5445 5451 5453 5451 5447 5446 5452 5478 5506 5505 5507 5509 5511 5513 5516 5518 5520 5523 5526 5529 5532 5535 5538 5540 5543 5545 5548 5549 5551 5552 5553 5554 5555 5557 5557 5558 5559 5560
5414 5403 5402 5407 5417 5424 5429 5435 5437 5436 5433 5438 5450 5470 5488 5488 5491 5494 5494 5496 5498 5501 5504 5506 5509 5511 5514 5517 5520 5522 5525 5527 5529 5531 5533 5534 5536 5537 5538 5540 5540 5541 5542 5542
5402 5392 5395 5403 5410 5414 5420 5427 5430 5430 5431 5431 5445 5456 5474 5476 5477 5480 5481 5481 5483 5485 5488 5490 5492 5494 5498 5500 5502 5504 5506 5508 5510 5513 5515 5516 5518 5519 5521 5522 5523 5523 5523 5524
5390 5383 5383 5387 5399 5402 5407 5418 5423 5427 5430 5432 5438 5450 5468 5466 5465 5465 5466 5467 5468 5471 5474 5476 5477 5479 5481 5484 5486 5487 5489 5490 5492 5494 5496 5498 5499 5500 5502 5503 5504 5504 5504 5504
5378 5372 5369 5371 5380 5381 5381 5412 5420 5423 5428 5430 5433 5448 5453 5450 5452 5452 5452 5453 5455 5459 5461 5462 5464 5465 5466 5467 5468 5469 5472 5473 5474 5476 5477 5478 5480 5481 5482 5484 5484 5485 5484 5484
5370 5363 5358 5355 5355 5362 5402 5415 5417 5418 5424 5427 5431 5435 5436 5437 5437 5439 5440 5439 5442 5445 5447 5448 5447 5448 5449 5449 5449 5451 5453 5454 5455 5457 5458 5459 5459 5461 5463 5464 5465 5465 5465 5465
5372 5362 5348 5343 5342 5353 5386 5403 5405 5404 5408 5417 5418 5421 5422 5423 5421 5425 5429 5427 5428 5429 5430 5430 5430 5430 5431 5431 5432 5433 5434 5435 5436 5438 5439 5440 5441 5442 5443 5445 5446 5446 5446 5446
5365 5359 5347 5336 5338 5338 5389 5401 5399 5396 5394 5407 5406 5407 5407 5406 5404 5415 5417 5413 5413 5412 5412 5412 5412 5411 5412 5413 5413 5414 5416 5418 5419 5421 5422 5422 5423 5424 5425 5426 5426 5426 5427 5427
5345 5342 5341 5336 5335 5349 5382 5387 5388 5375 5386 5394 5394 5394 5392 5391 5395 5399 5399 5397 5396 5395 5395 5394 5394 5394 5395 5395 5396 5397 5399 5401 5402 5401 5402 5403 5405 5405 5406 5406 5406 5407 5407 5407
5340 5332 5329 5328 5330 5349 5379 5375 5373 5374 5378 5378 5378 5378 5377 5379 5380 5379 5379 5379 5379 5378 5378 5378 5377 5378 5378 5378 5379 5381 5382 5383 5382 5383 5384 5384 5385 5386 5387 5387 5388 5387 5388 5388
5342 5347 5341 5342 5354 5366 5367 5366 5365 5362 5362 5363 5362 5363 5362 5363 5364 5364 5364 5364 5364 5363 5363 5362 5362 5362 5362 5361 5362 5364 5364 5363 5364 5364 5365 5366 5367 5368 5368 5369 5370 5370 5370 5370
5334 5340 5338 5337 5350 5354 5354 5353 5352 5350 5350 5352 5350 5348 5347 5347 5349 5349 5350 5350 5349 5348 5347 5345 5344 5345 5345 5344 5344 5345 5345 5345 5345 5346 5347 5349 5349 5350 5350 5351 5352 5352 5352 5352
5329 5328 5326 5329 5341 5340 5344 5343 5342 5340 5338 5335 5335 5334 5333 5332 5335 5335 5335 5335 5334 5333 5331 5329 5329 5329 5329 5327 5327 5326 5326 5326 5327 5329 5330 5331 5331 5332 5333 5334 5334 5335 5336 5335
5327 5325 5322 5330 5337 5331 5335 5335 5330 5326 5324 5323 5322 5321 5321 5319 5320 5319 5319 5319 5318 5316 5315 5313 5312 5312 5312 5311 5310 5309 5309 5310 5311 5312 5313 5313 5314 5314 5315 5316 5317 5318 5318 5319